This is the latest recevied weather packets stored in our database for station/object RK6MF-10. If no packets are shown the sender has not sent any weather packets the latest 10 day(s).
| Time | Temp. | Humidity | Pressure | Rain* | Wind** | Luminosity | Snow |
|---|---|---|---|---|---|---|---|
| 1777584394 | 6.67° C | 83% | 1015.3 hPa | - | - | - | - |
| 1777583494 | 7.78° C | 76% | 1015.4 hPa | - | - | - | - |
| 1777582594 | 7.78° C | 76% | 1015.5 hPa | - | - | - | - |
| 1777581694 | 7.78° C | 79% | 1015.4 hPa | - | - | - | - |
| 1777580794 | 7.78° C | 76% | 1015.5 hPa | - | - | - | - |
| 1777579893 | 7.78° C | 77% | 1015.5 hPa | - | - | - | - |
| 1777578992 | 7.78° C | 77% | 1015.5 hPa | - | - | - | - |
| 1777578092 | 7.22° C | 73% | 1015.5 hPa | - | - | - | - |
| 1777577192 | 7.22° C | 72% | 1015.6 hPa | - | - | - | - |
| 1777576292 | 7.78° C | 70% | 1015.7 hPa | - | - | - | - |
| 1777575392 | 7.78° C | 70% | 1015.8 hPa | - | - | - | - |
| 1777574492 | 7.78° C | 69% | 1015.9 hPa | - | - | - | - |
| 1777573592 | 7.78° C | 68% | 1015.9 hPa | - | - | - | - |
| 1777572692 | 7.78° C | 67% | 1015.9 hPa | - | - | - | - |
| 1777571792 | 8.33° C | 67% | 1016.1 hPa | - | - | - | - |
| 1777570891 | 8.33° C | 68% | 1016 hPa | - | - | - | - |
| 1777569991 | 8.33° C | 66% | 1015.8 hPa | - | - | - | - |
| 1777569091 | 8.33° C | 65% | 1015.8 hPa | - | - | - | - |
| 1777568191 | 8.33° C | 62% | 1015.7 hPa | - | - | - | - |
| 1777567291 | 8.33° C | 60% | 1015.6 hPa | - | - | - | - |
| 1777566391 | 8.89° C | 57% | 1015.5 hPa | - | - | - | - |
| 1777565491 | 10° C | 54% | 1015.3 hPa | - | - | - | - |
| 1777564590 | 10.56° C | 50% | 1015.2 hPa | - | - | - | - |
| 1777563693 | 11.11° C | 48% | 1015.2 hPa | - | - | - | - |
| 1777562793 | 11.67° C | 46% | 1015 hPa | - | - | - | - |
* Rain since midnight (hover to see other rain measurements)
** Current wind speed in m/s (hover to see current wind gust speed)